Location: Ku?niki
(51.4449°N, 17.8974°E)
Time: 06:39:31
(UTC+00:00)

DX 1 - Pass Details

Date: 02 July 2022
Orbit: 617 x 629 km, 98.4° (Epoch: 07 August)

Event Time Altitude Azimuth Distance (km) Brightness Sun altitude
Rises 21:16:00 0° 6° (N) 2,934 ? -12.6°
Reaches altitude 10° 21:18:27 10° 355° (N) 2,021 ? -12.7°
Maximum altitude 21:22:07 27° 298° (WNW) 1,227 ? -13.0°
Drops below altitude 10° 21:25:46 10° 241° (WSW) 2,004 ? -13.2°
Sets 21:28:12 0° 229° (SW) 2,904 ? -13.3°
